Regional Weather Roundup
Issued by NWS

Home | Current Version | Previous Version | Text Only | Print | Product List | Glossary Off
Versions: 1 2 3 4 5 6 7 8 9 10 11 12 13 14 15 16 17 18 19 20 21 22 23 24 25 26 27 28 29 30 31 32 33 34 35 36 37 38 39 40 41 42 43 44 45 46 47 48 49 50

245
ASUS45 KSLC 191910
RWRUT

UTAH REGIONAL WEATHER ROUNDUP
NATIONAL WEATHER SERVICE SALT LAKE CITY UT
100 PM MDT SAT AUG 19 2017

UTZ001>011-023>025-192000-

NORTHERN UTAH

CITY           SKY/WX    TMP DP  RH WIND       PRES   REMARKS
BRIGHAM CITY   SUNNY     85  26  12 W3        30.09S
HILL AFB       SUNNY     86  31  13 S5        30.11F
LOGAN          SUNNY     84  38  19 VRB5      30.09F
OGDEN          SUNNY     87  37  17 W7        30.08F
SALT LAKE CITY MOSUNNY   90  39  16 VRB6      30.05F
TOOELE VALLEY  MOSUNNY   88  37  16 NE7       30.07F
WENDOVER       SUNNY     86  31  13 SE8       30.07F
HEBER CITY     MOSUNNY   84  36  17 SW7       30.15F
WEST JORDAN    MOSUNNY   87  53  31 SE14      30.10F

$$

UTZ011>015-024>027-192000-

CENTRAL/NORTHEAST UTAH

CITY           SKY/WX    TMP DP  RH WIND       PRES   REMARKS
PROVO AIRPORT  MOSUNNY   82  46  28 VRB3      30.11F
MOAB/CANYONLAN SUNNY     94  32  11 VRB3      30.06F
DELTA          SUNNY     88  32  13 CALM      30.09F
PRICE          CLOUDY    81  35  19 VRB3      30.20F
ROOSEVELT      SUNNY     86  30  13 SE5       30.15F
VERNAL         SUNNY     84  36  18 S3        30.14F

$$

UTZ013>016-019>022-027-192000-

SOUTHERN UTAH

CITY           SKY/WX    TMP DP  RH WIND       PRES   REMARKS
BRYCE CANYON   LGT RAIN  75  35  23 NE5       30.34F
CEDAR CITY     SUNNY     87  35  15 VRB7      30.16F
MILFORD        SUNNY     90  35  14 SE8       30.10F
ST GEORGE      PTCLDY    93  41  16 W7        29.99F
HANKSVILLE     MOSUNNY   93  34  12 SE3       30.08F
BLANDING       MOSUNNY   87  32  14 S7        30.26F

$$

REGIONAL REPORTS     COLORADO/ARIZONA

CITY           SKY/WX    TMP DP  RH WIND       PRES   REMARKS
CRAIG, CO      SUNNY     85  22  10 SW10G18   30.20F
GRAND JUNCTION SUNNY     88  37  16 SW9       30.12F
RIFLE, CO      SUNNY     85  34  16 NW6       30.15F
MONTROSE, CO   SUNNY     84  37  18 E3        30.19F
CORTEZ, CO     MOSUNNY   88  28  11 CALM      30.19F
COLORADO CITY    N/A     90  36  14 W3        30.17F
PAGE, AZ       SUNNY     92  37  14 VRB5      30.06F
GRAND CANYON   SUNNY     82  30  15 SW9       30.29F
KINGMAN, AZ    SUNNY     93  44  18 MISG      30.06F
FLAGSTAFF, AZ  SUNNY     78  37  22 VRB3      30.32F

$$

REGIONAL REPORTS    NEVADA/IDAHO/WYOMING

CITY           SKY/WX    TMP DP  RH WIND       PRES   REMARKS
LAS VEGAS, NV  MOSUNNY   98  38  12 CALM      29.93F HX  93
ELY, NY        MOSUNNY   85  32  15 VRB6G17   30.19F
ELKO, NV       SUNNY     88  24  10 NE3       30.10F
POCATELLO, ID  SUNNY     85  31  14 W12       30.09F
BURLEY, ID     SUNNY     79  40  24 W7        30.07F
FORT BRIDGER,  CLEAR     82  23  11 NW13G24   30.28F
EVANSTON, WY   SUNNY     81  26  13 W12G24    30.27F
ROCK SPRINGS,  SUNNY     80  21  11 W15G22    30.23F

$$




USA.gov is the U.S. government's official web portal to all federal, state and local government web resources and services.